TITAN 3C TRANSTAGE DEB, 38699

Orbit data source: Space-Track

TITAN 3C TRANSTAGE DEB, 38699 is space debris in GEO originally from a launch on Thu, 26 Sep 1968 UTC launched from the Air Force Eastern Test Range (AFETR). Debris objects in space refer to the collection of defunct objects orbiting the Earth. Examples of debris include non-operational satellites, rocket bodies, and fragments generated from explosions, collisions, or faulty payload assembly.

Not visible in the next 10 days
Identifier
38699, 1968-081Z
Orbit
GEO
Country
Flag of USUS
Related business
Manufacturer
Unknown
Mission
Spacecraft
Bus & Motor
Unknown
Mass
Unknown
Launch date (UTC)
1968-09-26 (57 years ago)
Launch vehicle
Unknown
Launch site
Air Force Eastern Test Range (AFETR)
Object type
Payload
Rocket body
Debris
Shape & HBR
Unknown shape, 1.1 m
Radar Cross Section
Small (<0.1 m²)

Expand to show TLE details & history
Last TLE update: 1 month ago

TLE from 1 month ago
0 TITAN 3C TRANSTAGE DEB
1 38699U 68081Z   25309.96641987  .00000070  00000-0  00000-0 0  9994
2 38699   1.5583  33.2517 0094216 298.0536  58.6517  1.00846777 49617
Epoch: 2025-11-05T23:11Z
TLE epoch observation values (Epoch: 2025-11-05T23:11:38.676Z)
Latitude
-0.04501°
Longitude
-2.49914°
Altitude
35,421.923 km
Speed
3.096 km/s
True Right ascension
02h 03m 22s
True Declination
0° 02' 42"
Sunlit
Object was in daylight at epoch
Visualization orbit readout
Latitude
Unknown
Longitude
Unknown
Altitude
Unknown
Speed
Unknown
Apparent Right ascension
Unknown
Apparent Declination
Unknown
Sunlit
N/A
Visualization observer readout
Local Sidereal Time
06:51:00
Azimuth
Unknown
Elevation
Unknown
Doppler factor
Unknown
Orbital elements
Apogee altitude
36,023.001 km
Perigee altitude
35,231.486 km
Semi-major axis
42,005.38 km
Eccentricity
0.00942
Inclination
1.5583°
RAAN
33.2517°
Arg. of periapsis
298.0536°
True anomaly
59.57937°
Mean anomaly
58.6517°
Eccentric anomaly
59.11497°
Mean motion
0.25211 °/min
Orbital period
1,427.96 mins
BSTAR
0
Loading maneuver chart data...
Computing Atmospheric mass density...

Documentation

Showing up to 5 results
|